Regional Weather Roundup
Issued by NWS Sioux Falls, SD

Home | Current Version | Previous Version | Graphics & Text | Print | Product List | Glossary Off
Versions: 1 2 3 4 5 6 7 8 9 10 11 12 13 14 15 16 17 18 19 20 21 22 23 24 25 26 27 28 29 30 31 32 33 34 35 36 37 38 39 40 41 42 43 44 45 46 47 48 49 50

000
ASUS43 KFSD 261610
RWRFSD

WEATHER ROUNDUP FOR SE SOUTH DAKOTA/SW MINNESOTA/NW IOWA
NATIONAL WEATHER SERVICE SIOUX FALLS SD
1100 AM CDT MON JUN 26 2017

NOTE: "FAIR" INDICATES FEW OR NO CLOUDS BELOW 12,000 FEET WITH NO
SIGNIFICANT WEATHER AND OR OBSTRUCTIONS TO VISIBILITY.


SDZ038>040-050-052>070-261700-
SOUTHEAST SOUTH DAKOTA

CITY           SKY/WX    TMP DP  RH WIND       PRES   REMARKS
BROOKINGS      SUNNY     62  40  44 N7        30.25S
CHAMBERLAIN    SUNNY     69  43  39 N7        30.25S
HURON          SUNNY     66  41  40 N7        30.25F
MADISON        FAIR      59  41  51 NE8       30.25S
MITCHELL       SUNNY     67  42  40 NE12      30.25F
SIOUX FALLS    MOSUNNY   65  48  54 N7        30.23F
WINNER         FAIR      71  45  39 NE14      30.24F
YANKTON        SUNNY     66  50  56 NE10      30.22F
$$

MNZ071-072-080-081-089-090-097-098-261700-
SOUTHWEST MINNESOTA

CITY           SKY/WX    TMP DP  RH WIND       PRES   REMARKS
FAIRMONT       SUNNY     63  46  54 N13       30.22S
JACKSON        SUNNY     61  41  48 N10G16    30.23S
LUVERNE        SUNNY     63  41  45 N8        30.24S
MARSHALL       SUNNY     62  43  49 NE12G18   30.24F
MONTEVIDEO     SUNNY     64  43  45 NE8       30.24F
PIPESTONE      SUNNY     63  39  42 NE8       30.24S
REDWOOD FALLS  SUNNY     64  41  42 N9        30.22F
TRACY          MOSUNNY   62  46  55 N8        30.24F
WINDOM         SUNNY     63  43  48 N12G17    30.23S
WORTHINGTON    SUNNY     62  44  51 N6        30.24S
$$

IAZ001>003-012>014-020>022-031-032-NEZ013-014-SDZ071-261700-
NORTHWEST IOWA

CITY           SKY/WX    TMP DP  RH WIND       PRES   REMARKS
CHEROKEE       PTSUNNY   66  51  59 NE7       30.22S
DENISON        MOSUNNY   64  54  68 CALM      30.22S
ESTHERVILLE    SUNNY     63  46  54 N13       30.21F
LE MARS        SUNNY     66  48  52 NE6G13    30.22S
ORANGE CITY    SUNNY     66  48  52 NE6       30.22S
SHELDON        MOSUNNY   64  48  55 N7        30.21S
SIOUX CITY     MOSUNNY   69  53  56 NE7       30.20F
SPENCER        MOSUNNY   65  44  46 N12       30.22S
STORM LAKE     SUNNY     64  50  59 NE7       30.21F
$$

ABBREVIATIONS USED IN REMARKS
   TC - TEMPERATURE IN CELSIUS
  WCI - WIND CHILL INDEX
   HX - HEAT INDEX
  VSB - VISIBILITY





USA.gov is the U.S. government's official web portal to all federal, state and local government web resources and services.